| time (UTC) | temp F | wind direction | speed MPH | gust MPH | rain 1hr in | rain 24hr in | rain mn in | humidity % | barometer mb |
| 20260506211058 | 72 | 199 | 7.0 | 21.0 | 0.00 | 0.00 | 0.00 | 16 | |
| 20260506210459 | 73 | 259 | 11.0 | 19.0 | 0.00 | 0.00 | 0.00 | 15 | |
| 20260506205858 | 72 | 225 | 6.0 | 17.0 | 0.00 | 0.00 | 0.00 | 16 | |
| 20260506205258 | 71 | 264 | 8.0 | 22.0 | 0.00 | 0.00 | 0.00 | 16 | |
| 20260506204658 | 72 | 210 | 3.0 | 19.0 | 0.00 | 0.00 | 0.00 | 15 | |
| 20260506204058 | 72 | 248 | 11.0 | 22.0 | 0.00 | 0.00 | 0.00 | 15 | |
| 20260506203458 | 72 | 260 | 7.0 | 23.0 | 0.00 | 0.00 | 0.00 | 13 | |
| 20260506202915 | 72 | 271 | 8.0 | 23.0 | 0.00 | 0.00 | 0.00 | 15 | |
| 20260506202258 | 72 | 214 | 7.0 | 30.0 | 0.00 | 0.00 | 0.00 | 16 | |
| 20260506201658 | 72 | 267 | 4.0 | 20.0 | 0.00 | 0.00 | 0.00 | 17 | |
| 20260506201058 | 71 | 203 | 6.0 | 22.0 | 0.00 | 0.00 | 0.00 | 16 | |
| 20260506200458 | 72 | 250 | 4.0 | 21.0 | 0.00 | 0.00 | 0.00 | 18 | |
| 20260506195858 | 73 | 271 | 4.0 | 18.0 | 0.00 | 0.00 | 0.00 | 18 | |
| 20260506195258 | 73 | 222 | 5.0 | 17.0 | 0.00 | 0.00 | 0.00 | 16 | |
| 20260506194715 | 71 | 222 | 5.0 | 21.0 | 0.00 | 0.00 | 0.00 | 17 | |
| 20260506194058 | 71 | 270 | 5.0 | 21.0 | 0.00 | 0.00 | 0.00 | 19 | |
| 20260506193458 | 71 | 237 | 10.0 | 21.0 | 0.00 | 0.00 | 0.00 | 17 | |
| 20260506192858 | 71 | 258 | 12.0 | 21.0 | 0.00 | 0.00 | 0.00 | 16 | |
| 20260506192315 | 71 | 267 | 10.0 | 22.0 | 0.00 | 0.00 | 0.00 | 16 | |
| 20260506191658 | 71 | 259 | 12.0 | 24.0 | 0.00 | 0.00 | 0.00 | 16 | |
| 20260506191059 | 71 | 252 | 8.0 | 24.0 | 0.00 | 0.00 | 0.00 | 15 | |
| 20260506190458 | 71 | 284 | 9.0 | 20.0 | 0.00 | 0.00 | 0.00 | 15 | |
| 20260506185858 | 70 | 253 | 6.0 | 26.0 | 0.00 | 0.00 | 0.00 | 18 | |
| 20260506185258 | 70 | 267 | 8.0 | 18.0 | 0.00 | 0.00 | 0.00 | 16 | |
| 20260506184658 | 71 | 208 | 8.0 | 19.0 | 0.00 | 0.00 | 0.00 | 18 | |
| 20260506184058 | 70 | 239 | 6.0 | 25.0 | 0.00 | 0.00 | 0.00 | 17 | |
| 20260506183458 | 70 | 285 | 8.0 | 21.0 | 0.00 | 0.00 | 0.00 | 15 | |
| 20260506182932 | 70 | 234 | 7.0 | 17.0 | 0.00 | 0.00 | 0.00 | 18 | |
| 20260506182258 | 69 | 243 | 7.0 | 13.0 | 0.00 | 0.00 | 0.00 | 18 | |
| 20260506181658 | 69 | 221 | 5.0 | 23.0 | 0.00 | 0.00 | 0.00 | 22 | |
| 20260506181058 | 69 | 260 | 9.0 | 22.0 | 0.00 | 0.00 | 0.00 | 18 | |
| 20260506180458 | 69 | 232 | 4.0 | 19.0 | 0.00 | 0.00 | 0.00 | 21 | |
| 20260506175858 | 69 | 248 | 6.0 | 21.0 | 0.00 | 0.00 | 0.00 | 19 | |
| 20260506175258 | 69 | 213 | 9.0 | 17.0 | 0.00 | 0.00 | 0.00 | 19 | |
| 20260506174658 | 69 | 219 | 5.0 | 17.0 | 0.00 | 0.00 | 0.00 | 23 | |
| 20260506174058 | 69 | 275 | 6.0 | 22.0 | 0.00 | 0.00 | 0.00 | 20 | |
| 20260506173458 | 67 | 310 | 9.0 | 20.0 | 0.00 | 0.00 | 0.00 | 22 | |
| 20260506172858 | 67 | 270 | 8.0 | 21.0 | 0.00 | 0.00 | 0.00 | 22 | |
| 20260506172258 | 69 | 263 | 5.0 | 17.0 | 0.00 | 0.00 | 0.00 | 21 | |
| 20260506171658 | 67 | 265 | 7.0 | 18.0 | 0.00 | 0.00 | 0.00 | 23 | |
| 20260506171058 | 66 | 259 | 5.0 | 21.0 | 0.00 | 0.00 | 0.00 | 22 | |
| 20260506170458 | 66 | 222 | 6.0 | 22.0 | 0.00 | 0.00 | 0.00 | 25 | |
| 20260506165858 | 66 | 284 | 7.0 | 15.0 | 0.00 | 0.00 | 0.00 | 23 | |
| 20260506165258 | 65 | 281 | 4.0 | 16.0 | 0.00 | 0.00 | 0.00 | 26 | |
| 20260506164658 | 65 | 274 | 7.0 | 23.0 | 0.00 | 0.00 | 0.00 | 25 | |
| 20260506164115 | 64 | 273 | 9.0 | 20.0 | 0.00 | 0.00 | 0.00 | 25 | |
| 20260506163458 | 64 | 277 | 5.0 | 23.0 | 0.00 | 0.00 | 0.00 | 27 | |
| 20260506162858 | 63 | 266 | 7.0 | 19.0 | 0.00 | 0.00 | 0.00 | 27 | |
| 20260506162258 | 64 | 281 | 9.0 | 23.0 | 0.00 | 0.00 | 0.00 | 25 | |
| 20260506161658 | 63 | 249 | 6.0 | 20.0 | 0.00 | 0.00 | 0.00 | 28 | |
| 20260506161058 | 63 | 267 | 11.0 | 23.0 | 0.00 | 0.00 | 0.00 | 27 | |
| 20260506160458 | 62 | 248 | 8.0 | 23.0 | 0.00 | 0.00 | 0.00 | 27 | |
| 20260506155858 | 62 | 248 | 4.0 | 15.0 | 0.00 | 0.00 | 0.00 | 30 | |
| 20260506155315 | 62 | 243 | 7.0 | 19.0 | 0.00 | 0.00 | 0.00 | 30 | |
| 20260506154658 | 62 | 246 | 4.0 | 16.0 | 0.00 | 0.00 | 0.00 | 33 | |
| 20260506154058 | 61 | 300 | 4.0 | 16.0 | 0.00 | 0.00 | 0.00 | 34 | |
| 20260506153458 | 61 | 276 | 8.0 | 21.0 | 0.00 | 0.00 | 0.00 | 32 | |
| 20260506152949 | 60 | 225 | 6.0 | 19.0 | 0.00 | 0.00 | 0.00 | 34 | |
| 20260506152258 | 60 | 246 | 7.0 | 18.0 | 0.00 | 0.00 | 0.00 | 36 | |
| 20260506151658 | 60 | 271 | 4.0 | 19.0 | 0.00 | 0.00 | 0.00 | 37 | |
| 20260506151058 | 59 | 259 | 4.0 | 15.0 | 0.00 | 0.00 | 0.00 | 40 | |
| 20260506150458 | 59 | 249 | 6.0 | 13.0 | 0.00 | 0.00 | 0.00 | 39 | |
| 20260506145859 | 59 | 220 | 3.0 | 12.0 | 0.00 | 0.00 | 0.00 | 38 | |
| 20260506145315 | 58 | 266 | 4.0 | 11.0 | 0.00 | 0.00 | 0.00 | 41 | |
| 20260506144659 | 58 | 224 | 4.0 | 13.0 | 0.00 | 0.00 | 0.00 | 43 | |
| 20260506144058 | 58 | 224 | 3.0 | 9.0 | 0.00 | 0.00 | 0.00 | 43 | |
| 20260506143458 | 57 | 233 | 4.0 | 12.0 | 0.00 | 0.00 | 0.00 | 44 | |
| 20260506142859 | 56 | 243 | 4.0 | 14.0 | 0.00 | 0.00 | 0.00 | 45 | |
| 20260506142258 | 56 | 227 | 3.0 | 12.0 | 0.00 | 0.00 | 0.00 | 46 | |
| 20260506141658 | 56 | 275 | 3.0 | 8.0 | 0.00 | 0.00 | 0.00 | 47 | |
| 20260506141058 | 55 | 213 | 3.0 | 8.0 | 0.00 | 0.00 | 0.00 | 46 | |
| 20260506140458 | 55 | 170 | 0.0 | 6.0 | 0.00 | 0.00 | 0.00 | 48 | |
| 20260506135859 | 55 | 316 | 3.0 | 9.0 | 0.00 | 0.00 | 0.00 | 46 | |
| 20260506135258 | 54 | 246 | 3.0 | 7.0 | 0.00 | 0.00 | 0.00 | 48 | |
| 20260506134659 | 54 | 233 | 3.0 | 5.0 | 0.00 | 0.00 | 0.00 | 49 | |
| 20260506134058 | 53 | 243 | 1.0 | 8.0 | 0.00 | 0.00 | 0.00 | 49 | |
| 20260506133458 | 53 | 244 | 1.0 | 8.0 | 0.00 | 0.00 | 0.00 | 50 | |
| 20260506132915 | 52 | 242 | 2.0 | 7.0 | 0.00 | 0.00 | 0.00 | 51 | |
| 20260506132258 | 51 | 220 | 4.0 | 8.0 | 0.00 | 0.00 | 0.00 | 54 | |
| 20260506131658 | 50 | 213 | 2.0 | 7.0 | 0.00 | 0.00 | 0.00 | 55 | |
| 20260506131058 | 49 | 238 | 2.0 | 8.0 | 0.00 | 0.00 | 0.00 | 59 | |
| 20260506130458 | 47 | 264 | 3.0 | 4.0 | 0.00 | 0.00 | 0.00 | 63 | |
| 20260506125858 | 45 | 243 | 2.0 | 4.0 | 0.00 | 0.00 | 0.00 | 68 | |
| 20260506125258 | 44 | 211 | 1.0 | 7.0 | 0.00 | 0.00 | 0.00 | 72 | |
| 20260506124715 | 37 | 249 | 3.0 | 4.0 | 0.00 | 0.00 | 0.00 | 88 | |
| 20260506124058 | 35 | 265 | 1.0 | 4.0 | 0.00 | 0.00 | 0.00 | 89 | |
| 20260506123458 | 34 | 271 | 0.0 | 4.0 | 0.00 | 0.00 | 0.00 | 89 | |
| 20260506122858 | 33 | 247 | 0.0 | 3.0 | 0.00 | 0.00 | 0.00 | 89 | |
| 20260506122258 | 33 | 270 | 1.0 | 4.0 | 0.00 | 0.00 | 0.00 | 89 | |
| 20260506121659 | 33 | 277 | 1.0 | 4.0 | 0.00 | 0.00 | 0.00 | 89 | |
| 20260506121058 | 33 | 250 | 0.0 | 3.0 | 0.00 | 0.00 | 0.00 | 88 | |
| 20260506120458 | 33 | 253 | 0.0 | 3.0 | 0.00 | 0.00 | 0.00 | 87 | |
| 20260506115859 | 34 | 270 | 0.0 | 4.0 | 0.00 | 0.00 | 0.00 | 87 | |
| 20260506115258 | 34 | 283 | 0.0 | 4.0 | 0.00 | 0.00 | 0.00 | 86 | |
| 20260506114658 | 34 | 239 | 2.0 | 3.0 | 0.00 | 0.00 | 0.00 | 86 | |
| 20260506114100 | 35 | 255 | 0.0 | 4.0 | 0.00 | 0.00 | 0.00 | 86 | |
| 20260506113459 | 35 | 271 | 2.0 | 3.0 | 0.00 | 0.00 | 0.00 | 85 | |
| 20260506112858 | 35 | 270 | 0.0 | 3.0 | 0.00 | 0.00 | 0.00 | 84 | |
| 20260506112258 | 35 | 280 | 3.0 | 3.0 | 0.00 | 0.00 | 0.00 | 85 | |
| 20260506111658 | 36 | 274 | 0.0 | 4.0 | 0.00 | 0.00 | 0.00 | 83 | |
| 20260506111058 | 36 | 268 | 3.0 | 3.0 | 0.00 | 0.00 | 0.00 | 82 | |
| 20260506110458 | 37 | 247 | 0.0 | 4.0 | 0.00 | 0.00 | 0.00 | 85 | |
| 20260506105858 | 35 | 238 | 0.0 | 3.0 | 0.00 | 0.00 | 0.00 | 90 | |
| 20260506105315 | 34 | 258 | 0.0 | 4.0 | 0.00 | 0.00 | 0.00 | 89 | |
| 20260506104658 | 34 | 184 | 0.0 | 3.0 | 0.00 | 0.00 | 0.00 | 89 | |
| 20260506104058 | 34 | 250 | 0.0 | 3.0 | 0.00 | 0.00 | 0.00 | 89 | |
| 20260506103458 | 35 | 228 | 0.0 | 3.0 | 0.00 | 0.00 | 0.00 | 88 | |
| 20260506102858 | 35 | 175 | 0.0 | 1.0 | 0.00 | 0.00 | 0.00 | 87 | |
| 20260506102258 | 35 | 237 | 0.0 | 3.0 | 0.00 | 0.00 | 0.00 | 86 | |
| 20260506101059 | 36 | 233 | 0.0 | 3.0 | 0.00 | 0.00 | 0.00 | 84 | |
| 20260506100459 | 36 | 248 | 0.0 | 2.0 | 0.00 | 0.00 | 0.00 | 83 | |
| 20260506095858 | 36 | 277 | 0.0 | 2.0 | 0.00 | 0.00 | 0.00 | 83 | |
| 20260506095315 | 36 | 279 | 0.0 | 3.0 | 0.00 | 0.00 | 0.00 | 83 | |
| 20260506094659 | 36 | 280 | 0.0 | 4.0 | 0.00 | 0.00 | 0.00 | 84 | |
| 20260506094058 | 35 | 292 | 1.0 | 3.0 | 0.00 | 0.00 | 0.00 | 84 | |
| 20260506093458 | 35 | 292 | 0.0 | 2.0 | 0.00 | 0.00 | 0.00 | 85 | |
| 20260506092858 | 35 | 270 | 0.0 | 3.0 | 0.00 | 0.00 | 0.00 | 83 | |
| 20260506092258 | 36 | 259 | 0.0 | 4.0 | 0.00 | 0.00 | 0.00 | 82 | |
| 20260506091658 | 36 | 256 | 0.0 | 3.0 | 0.00 | 0.00 | 0.00 | 81 | |
| 20260506091058 | 36 | 216 | 0.0 | 3.0 | 0.00 | 0.00 | 0.00 | 80 | |
| 20260506090458 | 35 | 2 | 0.0 | 3.0 | 0.00 | 0.00 | 0.00 | 82 | |
| 20260506085858 | 35 | 116 | 1.0 | 3.0 | 0.00 | 0.00 | 0.00 | 84 | |
| 20260506085258 | 36 | 264 | 0.0 | 2.0 | 0.00 | 0.00 | 0.00 | 80 | |
| 20260506084658 | 36 | 265 | 0.0 | 4.0 | 0.00 | 0.00 | 0.00 | 80 | |
| 20260506084115 | 36 | 338 | 0.0 | 3.0 | 0.00 | 0.00 | 0.00 | 80 | |
| 20260506083458 | 35 | 307 | 0.0 | 3.0 | 0.00 | 0.00 | 0.00 | 81 | |
| 20260506082859 | 34 | 5 | 0.0 | 3.0 | 0.00 | 0.00 | 0.00 | 84 | |
| 20260506082259 | 35 | 352 | 0.0 | 0.0 | 0.00 | 0.00 | 0.00 | 83 | |
| 20260506081658 | 35 | 0 | 0.0 | 2.0 | 0.00 | 0.00 | 0.00 | 81 | |
| 20260506081115 | 36 | 22 | 0.0 | 0.0 | 0.00 | 0.00 | 0.00 | 78 | |
| 20260506080515 | 37 | 309 | 0.0 | 0.0 | 0.00 | 0.00 | 0.00 | 74 | |
| 20260506073458 | 38 | 179 | 0.0 | 3.0 | 0.00 | 0.00 | 0.00 | 74 | |
| 20260506072858 | 39 | 174 | 0.0 | 2.0 | 0.00 | 0.00 | 0.00 | 70 | |
| 20260506072300 | 39 | 164 | 1.0 | 4.0 | 0.00 | 0.00 | 0.00 | 67 | |
| 20260506071658 | 38 | 169 | 0.0 | 4.0 | 0.00 | 0.00 | 0.00 | 69 | |
| 20260506071058 | 37 | 171 | 0.0 | 3.0 | 0.00 | 0.00 | 0.00 | 77 | |
| 20260506070458 | 38 | 196 | 1.0 | 3.0 | 0.00 | 0.00 | 0.00 | 74 | |
| 20260506062258 | 38 | 243 | 0.0 | 2.0 | 0.00 | 0.00 | 0.00 | 77 | |
| 20260506061658 | 38 | 139 | 0.0 | 2.0 | 0.00 | 0.00 | 0.00 | 75 | |
| 20260506061115 | 39 | 207 | 0.0 | 0.0 | 0.00 | 0.00 | 0.00 | 73 | |
| 20260506060458 | 40 | 243 | 0.0 | 0.0 | 0.00 | 0.00 | 0.00 | 70 | |
| 20260506051059 | 51 | 239 | 1.0 | 5.0 | 0.00 | 0.00 | 0.00 | 37 | |
| 20260506050459 | 51 | 230 | 1.0 | 5.0 | 0.00 | 0.00 | 0.00 | 37 | |
| 20260506044732 | 52 | 247 | 2.0 | 7.0 | 0.00 | 0.00 | 0.00 | 36 | |
| 20260506044058 | 53 | 236 | 2.0 | 7.0 | 0.00 | 0.00 | 0.00 | 35 | |
| 20260506043459 | 53 | 239 | 2.0 | 7.0 | 0.00 | 0.00 | 0.00 | 35 | |
| 20260506042858 | 53 | 219 | 3.0 | 8.0 | 0.00 | 0.00 | 0.00 | 35 | |
| 20260506042316 | 53 | 260 | 2.0 | 8.0 | 0.00 | 0.00 | 0.00 | 36 | |
| 20260506041659 | 53 | 230 | 3.0 | 8.0 | 0.00 | 0.00 | 0.00 | 37 | |
| 20260506041059 | 53 | 222 | 3.0 | 8.0 | 0.00 | 0.00 | 0.00 | 37 | |
| 20260506040458 | 53 | 257 | 2.0 | 8.0 | 0.00 | 0.00 | 0.00 | 38 | |
| 20260506035858 | 53 | 222 | 3.0 | 7.0 | 0.00 | 0.00 | 0.00 | 38 | |
| 20260506035315 | 53 | 248 | 1.0 | 7.0 | 0.00 | 0.00 | 0.00 | 38 | |
| 20260506034658 | 54 | 240 | 2.0 | 9.0 | 0.00 | 0.00 | 0.00 | 39 | |
| 20260506034058 | 53 | 209 | 3.0 | 6.0 | 0.00 | 0.00 | 0.00 | 40 | |
| 20260506033459 | 54 | 218 | 1.0 | 10.0 | 0.00 | 0.00 | 0.00 | 39 | |
| 20260506032915 | 54 | 268 | 3.0 | 9.0 | 0.00 | 0.00 | 0.00 | 37 | |
| 20260506032258 | 54 | 273 | 4.0 | 9.0 | 0.00 | 0.00 | 0.00 | 36 | |
| 20260506031659 | 55 | 239 | 4.0 | 12.0 | 0.00 | 0.00 | 0.00 | 37 | |
| 20260506031058 | 55 | 264 | 4.0 | 10.0 | 0.00 | 0.00 | 0.00 | 37 | |
| 20260506030458 | 55 | 276 | 4.0 | 12.0 | 0.00 | 0.00 | 0.00 | 37 | |
| 20260506025859 | 55 | 240 | 3.0 | 7.0 | 0.00 | 0.00 | 0.00 | 37 | |
| 20260506025258 | 55 | 251 | 4.0 | 7.0 | 0.00 | 0.00 | 0.00 | 37 | |
| 20260506024658 | 55 | 269 | 4.0 | 6.0 | 0.00 | 0.00 | 0.00 | 37 | |
| 20260506024058 | 56 | 266 | 2.0 | 9.0 | 0.00 | 0.00 | 0.00 | 39 | |
| 20260506023459 | 57 | 252 | 4.0 | 9.0 | 0.00 | 0.00 | 0.00 | 38 | |
| 20260506022859 | 56 | 271 | 3.0 | 8.0 | 0.00 | 0.00 | 0.00 | 38 | |
| 20260506022349 | 57 | 258 | 5.0 | 8.0 | 0.00 | 0.00 | 0.00 | 37 | |
| 20260506021658 | 57 | 273 | 4.0 | 9.0 | 0.00 | 0.00 | 0.00 | 36 | |
| 20260506021059 | 58 | 254 | 3.0 | 9.0 | 0.00 | 0.00 | 0.00 | 35 | |
| 20260506020458 | 58 | 274 | 4.0 | 9.0 | 0.00 | 0.00 | 0.00 | 35 | |
| 20260506015859 | 58 | 252 | 4.0 | 9.0 | 0.00 | 0.00 | 0.00 | 36 | |
| 20260506015259 | 58 | 244 | 4.0 | 9.0 | 0.00 | 0.00 | 0.00 | 36 | |
| 20260506014659 | 59 | 250 | 4.0 | 10.0 | 0.00 | 0.00 | 0.00 | 35 | |
| 20260506014115 | 59 | 263 | 4.0 | 11.0 | 0.00 | 0.00 | 0.00 | 35 | |
| 20260506013458 | 60 | 280 | 3.0 | 12.0 | 0.00 | 0.00 | 0.00 | 35 | |
| 20260506012858 | 60 | 270 | 4.0 | 13.0 | 0.00 | 0.00 | 0.00 | 34 | |
| 20260506012316 | 60 | 249 | 4.0 | 12.0 | 0.00 | 0.00 | 0.00 | 34 | |
| 20260506011658 | 61 | 214 | 3.0 | 16.0 | 0.00 | 0.00 | 0.00 | 33 | |
| 20260506011058 | 61 | 260 | 6.0 | 16.0 | 0.00 | 0.00 | 0.00 | 32 | |
| 20260506010459 | 62 | 287 | 9.0 | 16.0 | 0.00 | 0.00 | 0.00 | 32 | |
| 20260506005858 | 62 | 230 | 7.0 | 14.0 | 0.00 | 0.00 | 0.00 | 32 | |
| 20260506005258 | 62 | 280 | 8.0 | 18.0 | 0.00 | 0.00 | 0.00 | 32 | |
| 20260506004659 | 63 | 293 | 10.0 | 18.0 | 0.00 | 0.00 | 0.00 | 31 | |
| 20260506004058 | 63 | 229 | 8.0 | 16.0 | 0.00 | 0.00 | 0.00 | 31 | |
| 20260506003458 | 64 | 242 | 4.0 | 17.0 | 0.00 | 0.00 | 0.00 | 31 | |
| 20260506002858 | 64 | 275 | 4.0 | 18.0 | 0.00 | 0.00 | 0.00 | 32 | |
| 20260506002258 | 64 | 249 | 8.0 | 21.0 | 0.00 | 0.00 | 0.00 | 32 | |
| 20260506001715 | 63 | 226 | 7.0 | 20.0 | 0.00 | 0.00 | 0.00 | 32 | |
| 20260506001059 | 63 | 263 | 5.0 | 20.0 | 0.00 | 0.00 | 0.00 | 34 | |
| 20260506000458 | 64 | 253 | 10.0 | 24.0 | 0.00 | 0.00 | 0.00 | 32 | |
| 20260505235858 | 64 | 191 | 4.0 | 21.0 | 0.00 | 0.00 | 0.00 | 32 | |
| 20260505235258 | 64 | 227 | 4.0 | 18.0 | 0.00 | 0.00 | 0.00 | 34 | |
| 20260505234658 | 63 | 275 | 10.0 | 20.0 | 0.00 | 0.00 | 0.00 | 33 | |
| 20260505234059 | 62 | 208 | 8.0 | 24.0 | 0.00 | 0.00 | 0.00 | 34 | |
| 20260505233532 | 63 | 263 | 9.0 | 22.0 | 0.00 | 0.00 | 0.00 | 35 | |
| 20260505232858 | 63 | 286 | 8.0 | 26.0 | 0.00 | 0.00 | 0.00 | 35 | |
| 20260505232258 | 63 | 264 | 7.0 | 28.0 | 0.00 | 0.00 | 0.00 | 34 | |
| 20260505231715 | 63 | 228 | 8.0 | 22.0 | 0.00 | 0.00 | 0.00 | 34 | |
| 20260505231059 | 62 | 216 | 5.0 | 23.0 | 0.00 | 0.00 | 0.00 | 31 | |
| 20260505230458 | 62 | 214 | 9.0 | 21.0 | 0.00 | 0.00 | 0.00 | 28 | |
| 20260505225915 | 62 | 241 | 12.0 | 23.0 | 0.00 | 0.00 | 0.00 | 29 | |
| 20260505225258 | 63 | 252 | 7.0 | 22.0 | 0.00 | 0.00 | 0.00 | 30 | |
| 20260505224715 | 63 | 269 | 8.0 | 26.0 | 0.00 | 0.00 | 0.00 | 29 | |
| 20260505224058 | 63 | 249 | 11.0 | 23.0 | 0.00 | 0.00 | 0.00 | 29 | |
| 20260505223459 | 64 | 273 | 11.0 | 27.0 | 0.00 | 0.00 | 0.00 | 29 | |
| 20260505222858 | 64 | 271 | 8.0 | 19.0 | 0.00 | 0.00 | 0.00 | 31 | |
| 20260505222315 | 65 | 212 | 7.0 | 22.0 | 0.00 | 0.00 | 0.00 | 30 | |
| 20260505221659 | 65 | 222 | 11.0 | 21.0 | 0.00 | 0.00 | 0.00 | 31 | |
| 20260505221059 | 65 | 259 | 7.0 | 23.0 | 0.00 | 0.00 | 0.00 | 31 | |
| 20260505220459 | 66 | 217 | 8.0 | 25.0 | 0.00 | 0.00 | 0.00 | 29 | |
| 20260505215915 | 66 | 194 | 9.0 | 21.0 | 0.00 | 0.00 | 0.00 | 30 | |
| 20260505215259 | 67 | 250 | 8.0 | 18.0 | 0.00 | 0.00 | 0.00 | 28 | |
| 20260505214658 | 67 | 240 | 9.0 | 21.0 | 0.00 | 0.00 | 0.00 | 28 | |
| 20260505214058 | 67 | 242 | 8.0 | 22.0 | 0.00 | 0.00 | 0.00 | 28 | |
| 20260505213458 | 67 | 258 | 8.0 | 23.0 | 0.00 | 0.00 | 0.00 | 27 | |
| 20260505212859 | 67 | 271 | 9.0 | 20.0 | 0.00 | 0.00 | 0.00 | 26 | |
| 20260505212259 | 68 | 237 | 6.0 | 22.0 | 0.00 | 0.00 | 0.00 | 26 | |
| 20260505211659 | 68 | 230 | 7.0 | 23.0 | 0.00 | 0.00 | 0.00 | 25 |